Time,TemperatureF,DewpointF,PressureIn,WindDirection,WindDirectionDegrees,WindSpeedMPH,WindSpeedGustMPH,Humidity,HourlyPrecipIn,Conditions,Clouds,dailyrainin,SoftwareType,DateUTC
2013-03-01 00:05:00,54.9,47.5,29.91,WNW,294,0.0,2.0,76,0.00,CLR,,0.00,WeatherDisplay:10.37,2013-03-01 05:05:00,
2013-03-01 00:10:00,54.6,47.5,29.91,WNW,294,0.0,1.0,77,0.00,CLR,,0.00,WeatherDisplay:10.37,2013-03-01 05:10:00,
2013-03-01 00:20:00,54.0,47.3,29.91,WNW,294,0.0,2.0,78,0.00,CLR,,0.00,WeatherDisplay:10.37,2013-03-01 05:20:00,
2013-03-01 00:25:00,53.9,47.5,29.91,WNW,294,0.0,2.0,79,0.00,CLR,,0.00,WeatherDisplay:10.37,2013-03-01 05:25:00,
2013-03-01 00:30:00,53.7,47.4,29.92,WNW,294,0.0,2.0,79,0.00,CLR,,0.00,WeatherDisplay:10.37,2013-03-01 05:30:00,
2013-03-01 00:35:00,53.7,47.3,29.92,WNW,289,1.0,3.0,79,0.00,CLR,,0.00,WeatherDisplay:10.37,2013-03-01 05:35:00,
2013-03-01 00:40:00,53.8,47.4,29.92,WNW,288,0.0,2.0,79,0.00,CLR,,0.00,WeatherDisplay:10.37,2013-03-01 05:40:00,
2013-03-01 00:45:00,53.9,47.5,29.92,NW,307,1.0,5.0,79,0.00,CLR,,0.00,WeatherDisplay:10.37,2013-03-01 05:45:00,
2013-03-01 00:50:00,54.0,47.6,29.91,NW,308,0.0,3.0,79,0.00,CLR,,0.00,WeatherDisplay:10.37,2013-03-01 05:50:00,
2013-03-01 00:55:00,54.0,47.6,29.91,NW,304,0.0,5.0,79,0.00,CLR,,0.00,WeatherDisplay:10.37,2013-03-01 05:55:00,
2013-03-01 01:00:00,54.0,47.6,29.92,NW,304,0.0,2.0,79,0.00,CLR,,0.00,WeatherDisplay:10.37,2013-03-01 06:00:00,
2013-03-01 01:05:00,53.9,47.5,29.92,NW,305,0.0,3.0,79,0.00,CLR,,0.00,WeatherDisplay:10.37,2013-03-01 06:05:00,
2013-03-01 01:10:00,53.8,47.4,29.92,NW,304,1.0,5.0,79,0.00,CLR,,0.00,WeatherDisplay:10.37,2013-03-01 06:10:00,
2013-03-01 01:15:00,53.8,47.4,29.91,WNW,301,1.0,4.0,79,0.00,CLR,,0.00,WeatherDisplay:10.37,2013-03-01 06:15:00,
2013-03-01 01:20:00,53.8,47.4,29.92,WNW,300,1.0,6.0,79,0.00,CLR,,0.00,WeatherDisplay:10.37,2013-03-01 06:20:00,
2013-03-01 01:25:00,53.7,47.3,29.91,WNW,298,0.0,5.0,79,0.00,CLR,,0.00,WeatherDisplay:10.37,2013-03-01 06:25:00,
2013-03-01 01:30:00,53.6,47.6,29.91,WNW,298,0.0,4.0,80,0.00,CLR,,0.00,WeatherDisplay:10.37,2013-03-01 06:30:00,
2013-03-01 01:35:00,53.4,47.4,29.91,NW,304,0.0,3.0,80,0.00,CLR,,0.00,WeatherDisplay:10.37,2013-03-01 06:35:00,
2013-03-01 01:40:00,53.3,47.6,29.91,NW,317,0.0,2.0,81,0.00,CLR,,0.00,WeatherDisplay:10.37,2013-03-01 06:40:00,
2013-03-01 01:45:00,53.1,47.5,29.91,NW,316,0.0,3.0,81,0.00,CLR,,0.00,WeatherDisplay:10.37,2013-03-01 06:45:00,
2013-03-01 01:50:00,53.0,47.3,29.91,NW,316,0.0,1.0,81,0.00,CLR,,0.00,WeatherDisplay:10.37,2013-03-01 06:50:00,
2013-03-01 01:55:00,52.7,47.4,29.91,NW,316,0.0,3.0,82,0.00,CLR,,0.00,WeatherDisplay:10.37,2013-03-01 06:55:00,
2013-03-01 02:00:00,52.6,47.3,29.90,NW,316,0.0,3.0,82,0.00,CLR,,0.00,WeatherDisplay:10.37,2013-03-01 07:00:00,
2013-03-01 02:05:00,52.5,47.2,29.90,NW,316,0.0,3.0,82,0.00,CLR,,0.00,WeatherDisplay:10.37,2013-03-01 07:05:00,
2013-03-01 02:10:00,52.3,47.0,29.90,NW,316,0.0,1.0,82,0.00,CLR,,0.00,WeatherDisplay:10.37,2013-03-01 07:10:00,
2013-03-01 02:15:00,52.1,47.1,29.90,NW,316,0.0,2.0,83,0.00,CLR,,0.00,WeatherDisplay:10.37,2013-03-01 07:15:00,
2013-03-01 02:20:00,52.0,47.0,29.90,NW,316,0.0,1.0,83,0.00,CLR,,0.00,WeatherDisplay:10.37,2013-03-01 07:20:00,
2013-03-01 02:25:00,51.8,46.8,29.89,NW,316,0.0,1.0,83,0.00,CLR,,0.00,WeatherDisplay:10.37,2013-03-01 07:25:00,
2013-03-01 02:35:00,51.2,46.8,29.89,NW,316,0.0,1.0,85,0.00,CLR,,0.00,WeatherDisplay:10.37,2013-03-01 07:35:00,
2013-03-01 02:40:00,50.9,46.5,29.88,NW,316,0.0,1.0,85,0.00,CLR,,0.00,WeatherDisplay:10.37,2013-03-01 07:40:00,
2013-03-01 02:45:00,50.6,46.3,29.88,NW,316,0.0,0.0,85,0.00,CLR,,0.00,WeatherDisplay:10.37,2013-03-01 07:45:00,
2013-03-01 02:50:00,50.3,45.7,29.88,NW,316,0.0,0.0,84,0.00,CLR,,0.00,WeatherDisplay:10.37,2013-03-01 07:50:00,
2013-03-01 03:00:00,49.6,45.3,29.88,NW,316,0.0,0.0,85,0.00,CLR,,0.00,WeatherDisplay:10.37,2013-03-01 08:00:00,
2013-03-01 03:05:00,49.4,45.4,29.88,NW,316,0.0,0.0,86,0.00,CLR,,0.00,WeatherDisplay:10.37,2013-03-01 08:05:00,
2013-03-01 03:10:00,49.1,45.4,29.88,NW,316,0.0,0.0,87,0.00,CLR,,0.00,WeatherDisplay:10.37,2013-03-01 08:10:00,
2013-03-01 03:20:00,48.7,45.0,29.88,NW,316,0.0,0.0,87,0.00,CLR,,0.00,WeatherDisplay:10.37,2013-03-01 08:20:00,
2013-03-01 03:25:00,48.4,44.4,29.88,NW,316,0.0,0.0,86,0.00,CLR,,0.00,WeatherDisplay:10.37,2013-03-01 08:25:00,
2013-03-01 03:30:00,48.1,44.4,29.88,NW,316,0.0,0.0,87,0.00,CLR,,0.00,WeatherDisplay:10.37,2013-03-01 08:30:00,
2013-03-01 03:35:00,47.8,44.1,29.88,NW,316,0.0,1.0,87,0.00,CLR,,0.00,WeatherDisplay:10.37,2013-03-01 08:35:00,
2013-03-01 03:40:00,47.7,44.6,29.88,NW,316,0.0,1.0,89,0.00,CLR,,0.00,WeatherDisplay:10.37,2013-03-01 08:40:00,
2013-03-01 03:45:00,47.7,44.9,29.88,NW,316,0.0,1.0,90,0.00,CLR,,0.00,WeatherDisplay:10.37,2013-03-01 08:45:00,
2013-03-01 03:50:00,47.8,45.0,29.89,NW,316,0.0,1.0,90,0.00,CLR,,0.00,WeatherDisplay:10.37,2013-03-01 08:50:00,
2013-03-01 03:55:00,47.8,45.3,29.89,NW,316,0.0,1.0,91,0.00,CLR,,0.00,WeatherDisplay:10.37,2013-03-01 08:55:00,
2013-03-01 04:05:00,48.1,45.5,29.88,NW,315,1.0,5.0,91,0.00,CLR,,0.00,WeatherDisplay:10.37,2013-03-01 09:05:00,
2013-03-01 04:15:00,48.6,45.8,29.88,NNW,344,1.0,6.0,90,0.00,CLR,,0.00,WeatherDisplay:10.37,2013-03-01 09:15:00,
2013-03-01 04:20:00,48.7,45.6,29.88,NNW,339,0.0,3.0,89,0.00,CLR,,0.00,WeatherDisplay:10.37,2013-03-01 09:20:00,
2013-03-01 04:25:00,48.8,45.4,29.88,NNW,339,0.0,1.0,88,0.00,CLR,,0.00,WeatherDisplay:10.37,2013-03-01 09:25:00,
2013-03-01 04:30:00,48.8,45.4,29.88,NNW,328,0.0,4.0,88,0.00,CLR,,0.00,WeatherDisplay:10.37,2013-03-01 09:30:00,
2013-03-01 04:40:00,48.5,44.8,29.88,NW,324,1.0,4.0,87,0.00,CLR,,0.00,WeatherDisplay:10.37,2013-03-01 09:40:00,
2013-03-01 04:45:00,48.6,44.6,29.88,NW,320,1.0,4.0,86,0.00,CLR,,0.00,WeatherDisplay:10.37,2013-03-01 09:45:00,
2013-03-01 04:50:00,48.7,44.4,29.88,NW,315,1.0,4.0,85,0.00,CLR,,0.00,WeatherDisplay:10.37,2013-03-01 09:50:00,
2013-03-01 04:55:00,48.9,44.0,29.88,NW,309,0.0,5.0,83,0.00,CLR,,0.00,WeatherDisplay:10.37,2013-03-01 09:55:00,
2013-03-01 05:00:00,48.9,44.0,29.89,NW,316,1.0,4.0,83,0.00,CLR,,0.00,WeatherDisplay:10.37,2013-03-01 10:00:00,
2013-03-01 05:05:00,48.8,43.5,29.89,NNW,333,1.0,4.0,82,0.00,CLR,,0.00,WeatherDisplay:10.37,2013-03-01 10:05:00,
2013-03-01 05:10:00,48.8,43.5,29.89,NW,322,0.0,5.0,82,0.00,CLR,,0.00,WeatherDisplay:10.37,2013-03-01 10:10:00,
2013-03-01 05:15:00,48.6,43.4,29.89,NW,317,0.0,2.0,82,0.00,CLR,,0.00,WeatherDisplay:10.37,2013-03-01 10:15:00,
2013-03-01 05:20:00,48.4,43.2,29.89,NW,317,0.0,1.0,82,0.00,CLR,,0.00,WeatherDisplay:10.37,2013-03-01 10:20:00,
2013-03-01 05:30:00,48.3,43.1,29.91,NW,317,0.0,2.0,82,0.00,CLR,,0.00,WeatherDisplay:10.37,2013-03-01 10:30:00,
2013-03-01 05:40:00,48.2,43.0,29.91,NW,317,0.0,2.0,82,0.00,CLR,,0.00,WeatherDisplay:10.37,2013-03-01 10:40:00,
2013-03-01 05:50:00,48.2,43.0,29.91,NW,318,0.0,4.0,82,0.00,CLR,,0.00,WeatherDisplay:10.37,2013-03-01 10:50:00,
2013-03-01 05:55:00,48.2,43.0,29.92,NNW,328,0.0,1.0,82,0.00,CLR,,0.00,WeatherDisplay:10.37,2013-03-01 10:55:00,
2013-03-01 06:00:00,48.2,43.3,29.92,NNW,330,0.0,3.0,83,0.00,CLR,,0.00,WeatherDisplay:10.37,2013-03-01 11:00:00,
2013-03-01 06:05:00,48.1,43.2,29.92,NNW,327,0.0,2.0,83,0.00,CLR,,0.00,WeatherDisplay:10.37,2013-03-01 11:05:00,
2013-03-01 06:15:00,48.3,43.4,29.93,NW,323,0.0,1.0,83,0.00,CLR,,0.00,WeatherDisplay:10.37,2013-03-01 11:15:00,
2013-03-01 06:20:00,48.3,43.4,29.92,NW,323,0.0,1.0,83,0.00,CLR,,0.00,WeatherDisplay:10.37,2013-03-01 11:20:00,
2013-03-01 06:25:00,48.5,43.9,29.93,NW,323,0.0,1.0,84,0.00,CLR,,0.00,WeatherDisplay:10.37,2013-03-01 11:25:00,
2013-03-01 06:30:00,48.5,43.9,29.92,NW,323,0.0,2.0,84,0.00,CLR,,0.00,WeatherDisplay:10.37,2013-03-01 11:30:00,
2013-03-01 06:35:00,48.5,43.6,29.92,NNW,330,0.0,4.0,83,0.00,CLR,,0.00,WeatherDisplay:10.37,2013-03-01 11:35:00,
2013-03-01 06:40:00,48.4,43.5,29.92,NNW,337,0.0,0.0,83,0.00,CLR,,0.00,WeatherDisplay:10.37,2013-03-01 11:40:00,
2013-03-01 06:45:00,48.4,43.5,29.93,NNW,337,0.0,1.0,83,0.00,CLR,,0.00,WeatherDisplay:10.37,2013-03-01 11:45:00,
2013-03-01 06:50:00,48.4,43.5,29.93,NNW,337,0.0,0.0,83,0.00,CLR,,0.00,WeatherDisplay:10.37,2013-03-01 11:50:00,
2013-03-01 06:55:00,48.4,43.5,29.93,NNW,337,0.0,0.0,83,0.00,CLR,,0.00,WeatherDisplay:10.37,2013-03-01 11:55:00,
2013-03-01 07:05:00,48.2,43.6,29.93,NNW,337,0.0,0.0,84,0.00,CLR,,0.00,WeatherDisplay:10.37,2013-03-01 12:05:00,
2013-03-01 07:10:00,48.1,43.5,29.93,NNW,341,0.0,0.0,84,0.00,CLR,,0.00,WeatherDisplay:10.37,2013-03-01 12:10:00,
2013-03-01 07:15:00,48.1,43.5,29.93,North,350,0.0,1.0,84,0.00,CLR,,0.00,WeatherDisplay:10.37,2013-03-01 12:15:00,
2013-03-01 07:20:00,48.1,43.5,29.93,North,2,0.0,2.0,84,0.00,CLR,,0.00,WeatherDisplay:10.37,2013-03-01 12:20:00,
2013-03-01 07:25:00,48.2,43.6,29.93,North,354,1.0,3.0,84,0.00,CLR,,0.00,WeatherDisplay:10.37,2013-03-01 12:25:00,
2013-03-01 07:30:00,48.4,43.4,29.93,NNW,327,0.0,1.0,83,0.00,CLR,,0.00,WeatherDisplay:10.37,2013-03-01 12:30:00,
2013-03-01 07:35:00,48.5,43.6,29.93,NW,325,0.0,2.0,83,0.00,CLR,,0.00,WeatherDisplay:10.37,2013-03-01 12:35:00,
2013-03-01 07:40:00,48.6,43.7,29.93,NW,325,0.0,0.0,83,0.00,CLR,,0.00,WeatherDisplay:10.37,2013-03-01 12:40:00,
2013-03-01 07:45:00,48.5,43.6,29.93,NW,317,0.0,1.0,83,0.00,CLR,,0.00,WeatherDisplay:10.37,2013-03-01 12:45:00,
2013-03-01 07:50:00,48.5,43.6,29.93,WNW,286,0.0,0.0,83,0.00,CLR,,0.00,WeatherDisplay:10.37,2013-03-01 12:50:00,
2013-03-01 07:55:00,48.5,43.6,29.93,West,276,0.0,1.0,83,0.00,CLR,,0.00,WeatherDisplay:10.37,2013-03-01 12:55:00,
2013-03-01 08:00:00,48.7,43.4,29.94,West,277,0.0,1.0,82,0.00,CLR,,0.00,WeatherDisplay:10.37,2013-03-01 13:00:00,
2013-03-01 08:05:00,48.9,43.6,29.94,West,277,0.0,1.0,82,0.00,CLR,,0.00,WeatherDisplay:10.37,2013-03-01 13:05:00,
2013-03-01 08:10:00,49.0,43.4,29.95,West,277,0.0,3.0,81,0.00,CLR,,0.00,WeatherDisplay:10.37,2013-03-01 13:10:00,
2013-03-01 08:15:00,49.3,43.7,29.95,West,277,0.0,2.0,81,0.00,CLR,,0.00,WeatherDisplay:10.37,2013-03-01 13:15:00,
2013-03-01 08:20:00,49.6,44.1,29.96,West,277,0.0,1.0,81,0.00,CLR,,0.00,WeatherDisplay:10.37,2013-03-01 13:20:00,
2013-03-01 08:25:00,50.0,44.1,29.96,WNW,299,0.0,4.0,80,0.00,CLR,,0.00,WeatherDisplay:10.37,2013-03-01 13:25:00,
2013-03-01 08:30:00,50.5,43.9,29.95,NW,317,0.0,4.0,78,0.00,CLR,,0.00,WeatherDisplay:10.37,2013-03-01 13:30:00,
2013-03-01 08:35:00,51.0,44.0,29.95,NNW,330,0.0,3.0,77,0.00,CLR,,0.00,WeatherDisplay:10.37,2013-03-01 13:35:00,
2013-03-01 08:40:00,51.6,44.2,29.96,NW,325,1.0,6.0,76,0.00,CLR,,0.00,WeatherDisplay:10.37,2013-03-01 13:40:00,
2013-03-01 08:45:00,51.9,43.5,29.96,NW,308,2.0,6.0,73,0.00,CLR,,0.00,WeatherDisplay:10.37,2013-03-01 13:45:00,
2013-03-01 08:50:00,52.2,43.5,29.96,NW,308,2.0,4.0,72,0.00,CLR,,0.00,WeatherDisplay:10.37,2013-03-01 13:50:00,
2013-03-01 08:55:00,52.8,44.0,29.97,NW,320,0.0,7.0,72,0.00,CLR,,0.00,WeatherDisplay:10.37,2013-03-01 13:55:00,
2013-03-01 09:00:00,53.1,43.2,29.96,NNW,332,2.0,5.0,69,0.00,CLR,,0.00,WeatherDisplay:10.37,2013-03-01 14:00:00,
2013-03-01 09:05:00,53.5,43.2,29.97,North,4,2.0,9.0,68,0.00,CLR,,0.00,WeatherDisplay:10.37,2013-03-01 14:05:00,
2013-03-01 09:10:00,53.7,42.6,29.96,NNW,332,2.0,8.0,66,0.00,CLR,,0.00,WeatherDisplay:10.37,2013-03-01 14:10:00,
2013-03-01 09:15:00,54.0,43.3,29.97,NW,318,1.0,5.0,67,0.00,CLR,,0.00,WeatherDisplay:10.37,2013-03-01 14:15:00,
2013-03-01 09:20:00,54.5,42.9,29.96,NNW,328,1.0,4.0,65,0.00,CLR,,0.00,WeatherDisplay:10.37,2013-03-01 14:20:00,
2013-03-01 09:25:00,54.6,41.4,29.96,NW,321,3.0,9.0,61,0.00,CLR,,0.00,WeatherDisplay:10.37,2013-03-01 14:25:00,
2013-03-01 09:30:00,54.4,41.2,29.96,NW,316,0.0,6.0,61,0.00,CLR,,0.00,WeatherDisplay:10.37,2013-03-01 14:30:00,
2013-03-01 09:35:00,54.4,41.2,29.96,North,353,1.0,6.0,61,0.00,CLR,,0.00,WeatherDisplay:10.37,2013-03-01 14:35:00,
2013-03-01 09:40:00,54.6,41.8,29.96,ENE,65,0.0,6.0,62,0.00,CLR,,0.00,WeatherDisplay:10.37,2013-03-01 14:40:00,
2013-03-01 09:45:00,54.8,42.4,29.96,North,5,1.0,4.0,63,0.00,CLR,,0.00,WeatherDisplay:10.37,2013-03-01 14:45:00,
2013-03-01 09:50:00,55.0,41.8,29.96,NW,326,1.0,9.0,61,0.00,CLR,,0.00,WeatherDisplay:10.37,2013-03-01 14:50:00,
2013-03-01 09:55:00,55.5,42.2,29.96,NW,321,5.0,7.0,61,0.00,CLR,,0.00,WeatherDisplay:10.37,2013-03-01 14:55:00,
2013-03-01 10:00:00,55.6,42.4,29.95,NNW,329,1.0,7.0,61,0.00,CLR,,0.00,WeatherDisplay:10.37,2013-03-01 15:00:00,
2013-03-01 10:05:00,55.7,42.0,29.95,NNW,342,0.0,7.0,60,0.00,CLR,,0.00,WeatherDisplay:10.37,2013-03-01 15:05:00,
2013-03-01 10:10:00,55.9,42.2,29.95,NNW,340,3.0,9.0,60,0.00,CLR,,0.00,WeatherDisplay:10.37,2013-03-01 15:10:00,
2013-03-01 10:20:00,56.1,42.4,29.96,NW,310,2.0,7.0,60,0.00,CLR,,0.00,WeatherDisplay:10.37,2013-03-01 15:20:00,
2013-03-01 10:25:00,56.2,42.0,29.96,NNW,336,1.0,7.0,59,0.00,CLR,,0.00,WeatherDisplay:10.37,2013-03-01 15:25:00,
2013-03-01 10:30:00,56.3,42.6,29.96,NNW,337,0.0,6.0,60,0.00,CLR,,0.00,WeatherDisplay:10.37,2013-03-01 15:30:00,
2013-03-01 10:35:00,56.6,41.5,29.96,NNW,337,1.0,4.0,57,0.00,CLR,,0.00,WeatherDisplay:10.37,2013-03-01 15:35:00,
2013-03-01 10:40:00,56.6,40.6,29.96,NW,318,3.0,10.0,55,0.00,CLR,,0.00,WeatherDisplay:10.37,2013-03-01 15:40:00,
2013-03-01 10:45:00,56.6,41.5,29.95,NW,311,2.0,7.0,57,0.00,CLR,,0.00,WeatherDisplay:10.37,2013-03-01 15:45:00,
2013-03-01 10:50:00,56.4,40.9,29.95,NW,316,1.0,6.0,56,0.00,CLR,,0.00,WeatherDisplay:10.37,2013-03-01 15:50:00,
2013-03-01 10:55:00,56.9,42.7,29.96,NW,323,0.0,3.0,59,0.00,CLR,,0.00,WeatherDisplay:10.37,2013-03-01 15:55:00,
2013-03-01 11:00:00,57.3,41.7,29.96,NNW,327,0.0,1.0,56,0.00,CLR,,0.00,WeatherDisplay:10.37,2013-03-01 16:00:00,
2013-03-01 11:05:00,57.7,41.2,29.96,NNE,23,0.0,6.0,54,0.00,CLR,,0.00,WeatherDisplay:10.37,2013-03-01 16:05:00,
2013-03-01 11:10:00,57.8,41.3,29.96,North,352,1.0,4.0,54,0.00,CLR,,0.00,WeatherDisplay:10.37,2013-03-01 16:10:00,
2013-03-01 11:15:00,58.0,42.8,29.96,NW,322,0.0,7.0,57,0.00,CLR,,0.00,WeatherDisplay:10.37,2013-03-01 16:15:00,
2013-03-01 11:20:00,58.0,41.9,29.96,NW,322,2.0,6.0,55,0.00,CLR,,0.00,WeatherDisplay:10.37,2013-03-01 16:20:00,
2013-03-01 11:25:00,58.3,41.3,29.95,NW,314,1.0,6.0,53,0.00,CLR,,0.00,WeatherDisplay:10.37,2013-03-01 16:25:00,
2013-03-01 11:30:00,58.8,42.2,29.95,WNW,300,1.0,6.0,54,0.00,CLR,,0.00,WeatherDisplay:10.37,2013-03-01 16:30:00,
2013-03-01 11:35:00,59.1,42.5,29.96,WNW,301,3.0,7.0,54,0.00,CLR,,0.00,WeatherDisplay:10.37,2013-03-01 16:35:00,
2013-03-01 11:40:00,59.1,41.5,29.96,NW,319,0.0,7.0,52,0.00,CLR,,0.00,WeatherDisplay:10.37,2013-03-01 16:40:00,
2013-03-01 11:45:00,59.3,42.2,29.95,NNW,344,0.0,5.0,53,0.00,CLR,,0.00,WeatherDisplay:10.37,2013-03-01 16:45:00,
2013-03-01 11:50:00,59.6,42.4,29.95,NW,320,0.0,9.0,53,0.00,CLR,,0.00,WeatherDisplay:10.37,2013-03-01 16:50:00,
2013-03-01 11:55:00,59.7,40.5,29.95,NW,317,1.0,7.0,49,0.00,CLR,,0.00,WeatherDisplay:10.37,2013-03-01 16:55:00,
2013-03-01 12:00:00,59.9,41.7,29.95,NW,320,1.0,5.0,51,0.00,CLR,,0.00,WeatherDisplay:10.37,2013-03-01 17:00:00,
2013-03-01 12:05:00,60.0,40.8,29.95,WNW,299,2.0,12.0,49,0.00,CLR,,0.00,WeatherDisplay:10.37,2013-03-01 17:05:00,
2013-03-01 12:10:00,59.6,40.9,29.95,WNW,288,1.0,7.0,50,0.00,CLR,,0.00,WeatherDisplay:10.37,2013-03-01 17:10:00,
2013-03-01 12:15:00,60.1,42.4,29.95,WNW,298,2.0,8.0,52,0.00,CLR,,0.00,WeatherDisplay:10.37,2013-03-01 17:15:00,
2013-03-01 12:20:00,60.7,39.8,29.94,NW,307,5.0,9.0,46,0.00,CLR,,0.00,WeatherDisplay:10.37,2013-03-01 17:20:00,
2013-03-01 12:25:00,60.0,40.3,29.94,WNW,301,2.0,10.0,48,0.00,CLR,,0.00,WeatherDisplay:10.37,2013-03-01 17:25:00,
2013-03-01 12:30:00,59.8,39.5,29.94,NW,312,2.0,8.0,47,0.00,CLR,,0.00,WeatherDisplay:10.37,2013-03-01 17:30:00,
2013-03-01 12:35:00,59.8,40.1,29.93,NW,314,1.0,7.0,48,0.00,CLR,,0.00,WeatherDisplay:10.37,2013-03-01 17:35:00,
2013-03-01 12:40:00,60.0,39.2,29.93,WNW,298,2.0,9.0,46,0.00,CLR,,0.00,WeatherDisplay:10.37,2013-03-01 17:40:00,
2013-03-01 12:45:00,60.1,39.3,29.93,WNW,293,2.0,7.0,46,0.00,CLR,,0.00,WeatherDisplay:10.37,2013-03-01 17:45:00,
2013-03-01 12:50:00,60.2,39.9,29.93,WNW,293,1.0,8.0,47,0.00,CLR,,0.00,WeatherDisplay:10.37,2013-03-01 17:50:00,
2013-03-01 12:55:00,60.5,40.2,29.92,WNW,297,5.0,8.0,47,0.00,CLR,,0.00,WeatherDisplay:10.37,2013-03-01 17:55:00,
2013-03-01 13:00:00,60.7,39.8,29.92,NW,304,3.0,11.0,46,0.00,CLR,,0.00,WeatherDisplay:10.37,2013-03-01 18:00:00,
2013-03-01 13:05:00,60.7,39.8,29.92,NW,310,1.0,10.0,46,0.00,CLR,,0.00,WeatherDisplay:10.37,2013-03-01 18:05:00,
2013-03-01 13:10:00,61.1,42.3,29.92,WNW,300,1.0,7.0,50,0.00,CLR,,0.00,WeatherDisplay:10.37,2013-03-01 18:10:00,
2013-03-01 13:15:00,61.6,40.0,29.91,WNW,286,1.0,4.0,45,0.00,CLR,,0.00,WeatherDisplay:10.37,2013-03-01 18:15:00,
2013-03-01 13:20:00,61.8,40.2,29.91,NW,308,3.0,8.0,45,0.00,CLR,,0.00,WeatherDisplay:10.37,2013-03-01 18:20:00,
2013-03-01 13:25:00,61.5,39.4,29.91,NW,310,3.0,10.0,44,0.00,CLR,,0.00,WeatherDisplay:10.37,2013-03-01 18:25:00,
2013-03-01 13:30:00,61.4,39.3,29.91,NW,310,2.0,9.0,44,0.00,CLR,,0.00,WeatherDisplay:10.37,2013-03-01 18:30:00,
2013-03-01 13:35:00,61.0,39.0,29.90,WNW,300,7.0,12.0,44,0.00,CLR,,0.00,WeatherDisplay:10.37,2013-03-01 18:35:00,
2013-03-01 13:40:00,60.6,38.6,29.90,WNW,303,3.0,10.0,44,0.00,CLR,,0.00,WeatherDisplay:10.37,2013-03-01 18:40:00,
2013-03-01 13:45:00,60.2,38.2,29.90,WNW,302,7.0,12.0,44,0.00,CLR,,0.00,WeatherDisplay:10.37,2013-03-01 18:45:00,
2013-03-01 13:50:00,60.3,38.9,29.90,WNW,291,2.0,12.0,45,0.00,CLR,,0.00,WeatherDisplay:10.37,2013-03-01 18:50:00,
2013-03-01 13:55:00,60.7,38.6,29.89,WNW,294,5.0,7.0,44,0.00,CLR,,0.00,WeatherDisplay:10.37,2013-03-01 18:55:00,
2013-03-01 14:00:00,60.9,38.2,29.89,NW,309,6.0,10.0,43,0.00,CLR,,0.00,WeatherDisplay:10.37,2013-03-01 19:00:00,
2013-03-01 14:05:00,61.0,38.3,29.89,NW,315,5.0,8.0,43,0.00,CLR,,0.00,WeatherDisplay:10.37,2013-03-01 19:05:00,
2013-03-01 14:10:00,61.2,39.1,29.89,NW,304,5.0,9.0,44,0.00,CLR,,0.00,WeatherDisplay:10.37,2013-03-01 19:10:00,
2013-03-01 14:15:00,61.1,38.5,29.88,WNW,300,2.0,10.0,43,0.00,CLR,,0.00,WeatherDisplay:10.37,2013-03-01 19:15:00,
2013-03-01 14:20:00,61.2,39.1,29.88,WNW,293,1.0,7.0,44,0.00,CLR,,0.00,WeatherDisplay:10.37,2013-03-01 19:20:00,
2013-03-01 14:25:00,61.3,39.2,29.88,WNW,296,3.0,10.0,44,0.00,CLR,,0.00,WeatherDisplay:10.37,2013-03-01 19:25:00,
2013-03-01 14:30:00,61.3,39.7,29.88,West,276,3.0,8.0,45,0.00,CLR,,0.00,WeatherDisplay:10.37,2013-03-01 19:30:00,
2013-03-01 14:35:00,62.2,40.0,29.88,West,269,3.0,7.0,44,0.00,CLR,,0.00,WeatherDisplay:10.37,2013-03-01 19:35:00,
2013-03-01 14:40:00,62.9,41.3,29.88,West,273,1.0,4.0,45,0.00,CLR,,0.00,WeatherDisplay:10.37,2013-03-01 19:40:00,
2013-03-01 14:45:00,63.4,40.5,29.88,WNW,282,3.0,12.0,43,0.00,CLR,,0.00,WeatherDisplay:10.37,2013-03-01 19:45:00,
2013-03-01 14:50:00,62.2,39.4,29.88,NW,305,5.0,12.0,43,0.00,CLR,,0.00,WeatherDisplay:10.37,2013-03-01 19:50:00,
2013-03-01 14:55:00,61.6,40.0,29.88,NW,306,3.0,7.0,45,0.00,CLR,,0.00,WeatherDisplay:10.37,2013-03-01 19:55:00,
2013-03-01 15:00:00,61.1,40.1,29.88,WNW,289,0.0,7.0,46,0.00,CLR,,0.00,WeatherDisplay:10.37,2013-03-01 20:00:00,
2013-03-01 15:05:00,61.0,39.5,29.88,West,279,1.0,10.0,45,0.00,CLR,,0.00,WeatherDisplay:10.37,2013-03-01 20:05:00,
2013-03-01 15:10:00,61.5,41.1,29.88,West,273,1.0,8.0,47,0.00,CLR,,0.00,WeatherDisplay:10.37,2013-03-01 20:10:00,
2013-03-01 15:15:00,62.5,41.4,29.88,West,263,2.0,7.0,46,0.00,CLR,,0.00,WeatherDisplay:10.37,2013-03-01 20:15:00,
2013-03-01 15:20:00,63.4,41.1,29.88,West,261,1.0,5.0,44,0.00,CLR,,0.00,WeatherDisplay:10.37,2013-03-01 20:20:00,
2013-03-01 15:25:00,63.5,41.2,29.88,West,269,1.0,6.0,44,0.00,CLR,,0.00,WeatherDisplay:10.37,2013-03-01 20:25:00,
2013-03-01 15:30:00,63.5,41.8,29.88,West,276,0.0,5.0,45,0.00,CLR,,0.00,WeatherDisplay:10.37,2013-03-01 20:30:00,
2013-03-01 15:35:00,63.9,41.5,29.88,West,269,0.0,7.0,44,0.00,CLR,,0.00,WeatherDisplay:10.37,2013-03-01 20:35:00,
2013-03-01 15:40:00,63.8,41.5,29.88,West,267,1.0,8.0,44,0.00,CLR,,0.00,WeatherDisplay:10.37,2013-03-01 20:40:00,
2013-03-01 15:50:00,64.5,40.9,29.88,WNW,285,2.0,10.0,42,0.00,CLR,,0.00,WeatherDisplay:10.37,2013-03-01 20:50:00,
2013-03-01 15:55:00,64.1,40.5,29.88,West,274,3.0,7.0,42,0.00,CLR,,0.00,WeatherDisplay:10.37,2013-03-01 20:55:00,
2013-03-01 16:05:00,63.4,40.5,29.88,WNW,283,2.0,6.0,43,0.00,CLR,,0.00,WeatherDisplay:10.37,2013-03-01 21:05:00,
2013-03-01 16:10:00,63.6,40.7,29.88,West,280,1.0,7.0,43,0.00,CLR,,0.00,WeatherDisplay:10.37,2013-03-01 21:10:00,
2013-03-01 16:15:00,64.1,40.5,29.88,WSW,248,3.0,9.0,42,0.00,CLR,,0.00,WeatherDisplay:10.37,2013-03-01 21:15:00,
2013-03-01 16:20:00,64.3,40.7,29.88,WSW,247,2.0,12.0,42,0.00,CLR,,0.00,WeatherDisplay:10.37,2013-03-01 21:20:00,
2013-03-01 16:25:00,64.4,40.8,29.88,West,279,1.0,8.0,42,0.00,CLR,,0.00,WeatherDisplay:10.37,2013-03-01 21:25:00,
2013-03-01 16:30:00,64.8,41.2,29.87,WNW,285,1.0,5.0,42,0.00,CLR,,0.00,WeatherDisplay:10.37,2013-03-01 21:30:00,
2013-03-01 16:35:00,64.7,39.2,29.87,WNW,303,3.0,12.0,39,0.00,CLR,,0.00,WeatherDisplay:10.37,2013-03-01 21:35:00,
2013-03-01 16:40:00,64.4,40.8,29.88,NW,307,1.0,9.0,42,0.00,CLR,,0.00,WeatherDisplay:10.37,2013-03-01 21:40:00,
2013-03-01 16:45:00,64.2,40.0,29.87,West,281,0.0,4.0,41,0.00,CLR,,0.00,WeatherDisplay:10.37,2013-03-01 21:45:00,
2013-03-01 16:50:00,63.8,40.3,29.88,West,263,0.0,7.0,42,0.00,CLR,,0.00,WeatherDisplay:10.37,2013-03-01 21:50:00,
2013-03-01 17:00:00,63.7,39.5,29.88,WNW,290,5.0,10.0,41,0.00,CLR,,0.00,WeatherDisplay:10.37,2013-03-01 22:00:00,
2013-03-01 17:05:00,63.3,39.2,29.87,WNW,294,2.0,10.0,41,0.00,CLR,,0.00,WeatherDisplay:10.37,2013-03-01 22:05:00,
2013-03-01 17:10:00,63.2,40.3,29.87,WNW,288,0.0,8.0,43,0.00,CLR,,0.00,WeatherDisplay:10.37,2013-03-01 22:10:00,
2013-03-01 17:15:00,63.2,39.7,29.87,WSW,257,2.0,7.0,42,0.00,CLR,,0.00,WeatherDisplay:10.37,2013-03-01 22:15:00,
2013-03-01 17:20:00,63.3,39.2,29.88,West,280,5.0,9.0,41,0.00,CLR,,0.00,WeatherDisplay:10.37,2013-03-01 22:20:00,
2013-03-01 17:25:00,63.0,37.6,29.88,WNW,300,5.0,12.0,39,0.00,CLR,,0.00,WeatherDisplay:10.37,2013-03-01 22:25:00,
2013-03-01 17:30:00,62.3,37.0,29.88,WNW,300,7.0,16.0,39,0.00,CLR,,0.00,WeatherDisplay:10.37,2013-03-01 22:30:00,
2013-03-01 17:35:00,61.8,37.2,29.88,NW,304,7.0,12.0,40,0.00,CLR,,0.00,WeatherDisplay:10.37,2013-03-01 22:35:00,
2013-03-01 17:40:00,61.4,37.4,29.88,NW,308,3.0,12.0,41,0.00,CLR,,0.00,WeatherDisplay:10.37,2013-03-01 22:40:00,
2013-03-01 17:45:00,60.9,37.0,29.89,WNW,303,2.0,12.0,41,0.00,CLR,,0.00,WeatherDisplay:10.37,2013-03-01 22:45:00,
2013-03-01 17:50:00,60.6,37.4,29.89,WNW,300,2.0,10.0,42,0.00,CLR,,0.00,WeatherDisplay:10.37,2013-03-01 22:50:00,
2013-03-01 17:55:00,60.3,37.1,29.88,NW,304,3.0,7.0,42,0.00,CLR,,0.00,WeatherDisplay:10.37,2013-03-01 22:55:00,
2013-03-01 18:00:00,60.0,35.5,29.89,WNW,300,5.0,12.0,40,0.00,CLR,,0.00,WeatherDisplay:10.37,2013-03-01 23:00:00,
2013-03-01 18:05:00,59.7,35.9,29.89,WNW,298,1.0,13.0,41,0.00,CLR,,0.00,WeatherDisplay:10.37,2013-03-01 23:05:00,
2013-03-01 18:10:00,59.4,35.7,29.89,NW,305,2.0,8.0,41,0.00,CLR,,0.00,WeatherDisplay:10.37,2013-03-01 23:10:00,
2013-03-01 18:15:00,59.0,35.9,29.89,NW,313,5.0,9.0,42,0.00,CLR,,0.00,WeatherDisplay:10.37,2013-03-01 23:15:00,
2013-03-01 18:20:00,58.7,36.2,29.90,WNW,301,1.0,12.0,43,0.00,CLR,,0.00,WeatherDisplay:10.37,2013-03-01 23:20:00,
2013-03-01 18:25:00,58.5,36.0,29.90,WNW,302,7.0,15.0,43,0.00,CLR,,0.00,WeatherDisplay:10.37,2013-03-01 23:25:00,
2013-03-01 18:30:00,58.2,36.4,29.90,NW,304,3.0,10.0,44,0.00,CLR,,0.00,WeatherDisplay:10.37,2013-03-01 23:30:00,
2013-03-01 18:35:00,58.0,37.3,29.91,WNW,299,2.0,8.0,46,0.00,CLR,,0.00,WeatherDisplay:10.37,2013-03-01 23:35:00,
2013-03-01 18:40:00,57.8,37.7,29.91,WNW,298,1.0,10.0,47,0.00,CLR,,0.00,WeatherDisplay:10.37,2013-03-01 23:40:00,
2013-03-01 18:45:00,57.6,37.5,29.91,WNW,298,3.0,8.0,47,0.00,CLR,,0.00,WeatherDisplay:10.37,2013-03-01 23:45:00,
2013-03-01 18:50:00,57.5,38.5,29.91,WNW,294,3.0,10.0,49,0.00,CLR,,0.00,WeatherDisplay:10.37,2013-03-01 23:50:00,
2013-03-01 18:55:00,57.4,38.4,29.91,WNW,299,5.0,9.0,49,0.00,CLR,,0.00,WeatherDisplay:10.37,2013-03-01 23:55:00,
2013-03-01 19:00:00,57.3,38.8,29.92,NW,309,5.0,9.0,50,0.00,CLR,,0.00,WeatherDisplay:10.37,2013-03-02 00:00:00,
2013-03-01 19:05:00,57.2,38.7,29.92,NW,312,6.0,13.0,50,0.00,CLR,,0.00,WeatherDisplay:10.37,2013-03-02 00:05:00,
2013-03-01 19:15:00,56.9,39.0,29.92,NW,304,1.0,10.0,51,0.00,CLR,,0.00,WeatherDisplay:10.37,2013-03-02 00:15:00,
2013-03-01 19:20:00,56.8,39.4,29.92,WNW,298,2.0,8.0,52,0.00,CLR,,0.00,WeatherDisplay:10.37,2013-03-02 00:20:00,
2013-03-01 19:25:00,56.7,39.3,29.92,WNW,294,5.0,12.0,52,0.00,CLR,,0.00,WeatherDisplay:10.37,2013-03-02 00:25:00,
2013-03-01 19:35:00,56.4,38.9,29.93,WNW,292,5.0,10.0,52,0.00,CLR,,0.00,WeatherDisplay:10.37,2013-03-02 00:35:00,
2013-03-01 19:40:00,56.2,38.8,29.92,NW,305,5.0,12.0,52,0.00,CLR,,0.00,WeatherDisplay:10.37,2013-03-02 00:40:00,
2013-03-01 19:45:00,56.0,39.1,29.93,NW,311,6.0,12.0,53,0.00,CLR,,0.00,WeatherDisplay:10.37,2013-03-02 00:45:00,
2013-03-01 19:50:00,55.9,39.5,29.93,WNW,298,5.0,12.0,54,0.00,CLR,,0.00,WeatherDisplay:10.37,2013-03-02 00:50:00,
2013-03-01 19:55:00,55.8,39.9,29.93,WNW,294,3.0,14.0,55,0.00,CLR,,0.00,WeatherDisplay:10.37,2013-03-02 00:55:00,
2013-03-01 20:00:00,55.7,39.8,29.94,WNW,295,6.0,14.0,55,0.00,CLR,,0.00,WeatherDisplay:10.37,2013-03-02 01:00:00,
2013-03-01 20:05:00,55.5,40.0,29.94,WNW,298,3.0,14.0,56,0.00,CLR,,0.00,WeatherDisplay:10.37,2013-03-02 01:05:00,
2013-03-01 20:10:00,55.3,39.9,29.94,WNW,298,3.0,12.0,56,0.00,CLR,,0.00,WeatherDisplay:10.37,2013-03-02 01:10:00,
2013-03-01 20:15:00,55.2,39.8,29.94,WNW,297,5.0,9.0,56,0.00,CLR,,0.00,WeatherDisplay:10.37,2013-03-02 01:15:00,
2013-03-01 20:20:00,55.1,40.1,29.93,WNW,302,1.0,10.0,57,0.00,CLR,,0.00,WeatherDisplay:10.37,2013-03-02 01:20:00,
2013-03-01 20:25:00,55.0,40.0,29.93,NW,304,2.0,8.0,57,0.00,CLR,,0.00,WeatherDisplay:10.37,2013-03-02 01:25:00,
2013-03-01 20:30:00,54.8,39.8,29.93,WNW,298,2.0,13.0,57,0.00,CLR,,0.00,WeatherDisplay:10.37,2013-03-02 01:30:00,
2013-03-01 20:35:00,54.6,40.1,29.94,WNW,291,2.0,10.0,58,0.00,CLR,,0.00,WeatherDisplay:10.37,2013-03-02 01:35:00,
2013-03-01 20:40:00,54.5,40.0,29.93,WNW,289,1.0,12.0,58,0.00,CLR,,0.00,WeatherDisplay:10.37,2013-03-02 01:40:00,
2013-03-01 20:45:00,54.4,39.5,29.94,WNW,297,3.0,12.0,57,0.00,CLR,,0.00,WeatherDisplay:10.37,2013-03-02 01:45:00,
2013-03-01 20:50:00,54.3,39.4,29.94,NW,305,6.0,15.0,57,0.00,CLR,,0.00,WeatherDisplay:10.37,2013-03-02 01:50:00,
2013-03-01 20:55:00,54.2,39.7,29.94,WNW,297,6.0,15.0,58,0.00,CLR,,0.00,WeatherDisplay:10.37,2013-03-02 01:55:00,
2013-03-01 21:00:00,54.1,39.6,29.94,WNW,301,5.0,14.0,58,0.00,CLR,,0.00,WeatherDisplay:10.37,2013-03-02 02:00:00,
2013-03-01 21:05:00,54.1,40.0,29.94,WNW,296,2.0,15.0,59,0.00,CLR,,0.00,WeatherDisplay:10.37,2013-03-02 02:05:00,
2013-03-01 21:10:00,54.0,40.0,29.95,WNW,291,3.0,12.0,59,0.00,CLR,,0.00,WeatherDisplay:10.37,2013-03-02 02:10:00,
2013-03-01 21:15:00,53.9,40.3,29.95,WNW,289,1.0,7.0,60,0.00,CLR,,0.00,WeatherDisplay:10.37,2013-03-02 02:15:00,
2013-03-01 21:20:00,53.8,40.7,29.95,WNW,303,3.0,13.0,61,0.00,CLR,,0.00,WeatherDisplay:10.37,2013-03-02 02:20:00,
2013-03-01 21:25:00,53.8,41.1,29.95,WNW,302,1.0,4.0,62,0.00,CLR,,0.00,WeatherDisplay:10.37,2013-03-02 02:25:00,
2013-03-01 21:30:00,53.7,41.0,29.94,WNW,298,0.0,4.0,62,0.00,CLR,,0.00,WeatherDisplay:10.37,2013-03-02 02:30:00,
2013-03-01 21:35:00,53.6,40.9,29.95,WNW,298,3.0,12.0,62,0.00,CLR,,0.00,WeatherDisplay:10.37,2013-03-02 02:35:00,
2013-03-01 21:40:00,53.6,41.3,29.95,WNW,300,3.0,9.0,63,0.00,CLR,,0.00,WeatherDisplay:10.37,2013-03-02 02:40:00,
2013-03-01 21:45:00,53.6,41.3,29.95,WNW,302,3.0,10.0,63,0.00,CLR,,0.00,WeatherDisplay:10.37,2013-03-02 02:45:00,
2013-03-01 21:50:00,53.6,41.3,29.95,WNW,302,5.0,9.0,63,0.00,CLR,,0.00,WeatherDisplay:10.37,2013-03-02 02:50:00,
2013-03-01 21:55:00,53.5,41.2,29.96,WNW,303,5.0,10.0,63,0.00,CLR,,0.00,WeatherDisplay:10.37,2013-03-02 02:55:00,
2013-03-01 22:00:00,53.5,41.6,29.96,WNW,298,5.0,12.0,64,0.00,CLR,,0.00,WeatherDisplay:10.37,2013-03-02 03:00:00,
2013-03-01 22:05:00,53.4,41.5,29.96,WNW,300,2.0,13.0,64,0.00,CLR,,0.00,WeatherDisplay:10.37,2013-03-02 03:05:00,
2013-03-01 22:10:00,53.3,41.4,29.97,NW,308,6.0,12.0,64,0.00,CLR,,0.00,WeatherDisplay:10.37,2013-03-02 03:10:00,
2013-03-01 22:15:00,53.3,41.8,29.97,NW,306,3.0,9.0,65,0.00,CLR,,0.00,WeatherDisplay:10.37,2013-03-02 03:15:00,
2013-03-01 22:20:00,53.2,41.7,29.97,NW,311,5.0,9.0,65,0.00,CLR,,0.00,WeatherDisplay:10.37,2013-03-02 03:20:00,
2013-03-01 22:25:00,53.1,41.6,29.96,NW,314,3.0,13.0,65,0.00,CLR,,0.00,WeatherDisplay:10.37,2013-03-02 03:25:00,
2013-03-01 22:30:00,52.9,41.8,29.95,NW,317,3.0,8.0,66,0.00,CLR,,0.00,WeatherDisplay:10.37,2013-03-02 03:30:00,
2013-03-01 22:35:00,52.8,41.7,29.96,NW,307,3.0,9.0,66,0.00,CLR,,0.00,WeatherDisplay:10.37,2013-03-02 03:35:00,
2013-03-01 22:40:00,52.7,41.7,29.97,NW,304,2.0,13.0,66,0.00,CLR,,0.00,WeatherDisplay:10.37,2013-03-02 03:40:00,
2013-03-01 22:45:00,52.6,41.6,29.96,NW,314,5.0,12.0,66,0.00,CLR,,0.00,WeatherDisplay:10.37,2013-03-02 03:45:00,
2013-03-01 22:50:00,52.5,41.5,29.96,NW,316,6.0,10.0,66,0.00,CLR,,0.00,WeatherDisplay:10.37,2013-03-02 03:50:00,
2013-03-01 22:55:00,52.5,41.8,29.96,NW,307,3.0,13.0,67,0.00,CLR,,0.00,WeatherDisplay:10.37,2013-03-02 03:55:00,
2013-03-01 23:00:00,52.4,41.8,29.96,NW,309,5.0,10.0,67,0.00,CLR,,0.00,WeatherDisplay:10.37,2013-03-02 04:00:00,
2013-03-01 23:05:00,52.3,41.3,29.96,NW,313,7.0,14.0,66,0.00,CLR,,0.00,WeatherDisplay:10.37,2013-03-02 04:05:00,
2013-03-01 23:10:00,52.2,41.2,29.96,NW,309,5.0,9.0,66,0.00,CLR,,0.00,WeatherDisplay:10.37,2013-03-02 04:10:00,
2013-03-01 23:15:00,52.2,41.2,29.96,NW,305,5.0,13.0,66,0.00,CLR,,0.00,WeatherDisplay:10.37,2013-03-02 04:15:00,
2013-03-01 23:20:00,52.1,41.1,29.97,NW,312,5.0,9.0,66,0.00,CLR,,0.00,WeatherDisplay:10.37,2013-03-02 04:20:00,
2013-03-01 23:25:00,52.1,40.7,29.97,NW,313,5.0,13.0,65,0.00,CLR,,0.00,WeatherDisplay:10.37,2013-03-02 04:25:00,
2013-03-01 23:30:00,52.0,40.6,29.97,WNW,301,5.0,9.0,65,0.00,CLR,,0.00,WeatherDisplay:10.37,2013-03-02 04:30:00,
2013-03-01 23:35:00,52.0,40.6,29.98,WNW,303,2.0,7.0,65,0.00,CLR,,0.00,WeatherDisplay:10.37,2013-03-02 04:35:00,
2013-03-01 23:40:00,51.9,40.5,29.97,NW,319,1.0,6.0,65,0.00,CLR,,0.00,WeatherDisplay:10.37,2013-03-02 04:40:00,
2013-03-01 23:45:00,51.8,40.0,29.98,WNW,302,2.0,12.0,64,0.00,CLR,,0.00,WeatherDisplay:10.37,2013-03-02 04:45:00,
2013-03-01 23:50:00,51.8,40.4,29.97,NW,312,1.0,8.0,65,0.00,CLR,,0.00,WeatherDisplay:10.37,2013-03-02 04:50:00,
2013-03-01 23:55:00,51.6,39.8,29.97,NW,311,6.0,12.0,64,0.00,CLR,,0.00,WeatherDisplay:10.37,2013-03-02 04:55:00,